Location: Ingoldesthorpe
(52.8667°N, 0.5167°E)
Time: 06:24:07
(UTC+00:00)

ISS - Pass Details

Date: 19 May 2025
Orbit: 415 x 416 km, 51.6° (Epoch: 18 June)

Event Time Altitude Azimuth Distance (km) Brightness Sun altitude
Rises 21:50:08 0° 280° (W) 2,362 0.7 -12.3°
Reaches altitude 10° 21:52:20 10° 272° (W) 1,495 -0.5 -12.5°
Maximum altitude 21:55:26 35° 204° (SSW) 686 -3.0 -12.7°
Enters shadow 21:56:50 24° 156° (SSE) 911 -2.7 -12.8°
